This demonstration page uses our WeatherBlox Daily Observations layout. Learn more.

Left ArrowRight Arrow

Hourly Observations for April 26, 2021

Temp ( °F °C ) Dew Point ( °F °C ) Humidity (%) Winds ( mph kmh ) Pressure ( in mb ) Visibility ( mi km ) Precip ( " mm )
12:53 am 00:53 Clear 63 17.2 53 11.7 70 70 SSE 16 26 29.56 1001 10 16 0.00 0.00
1:53 am 01:53 Clear 63 17.2 53 11.7 70 70 SSE 16 26 29.52 1000 10 16 0.00 0.00
2:53 am 02:53 Clear 62 16.7 53 11.7 73 73 SSE 15 24 29.49 999 10 16 0.00 0.00
3:53 am 03:53 Clear 60 15.6 53 11.7 78 78 S 16 26 29.45 997 10 16 0.00 0.00
4:53 am 04:53 Clear 58 14.4 53 11.7 84 84 S 15 24 29.42 996 10 16 0.00 0.00
5:53 am 05:53 Clear 58 14.4 53 11.7 84 84 S 15 24 29.40 996 10 16 0.00 0.00
6:53 am 06:53 Sunny 59 15 53 11.7 81 81 SSW 13 20 29.43 997 10 16 0.00 0.00
7:53 am 07:53 Sunny 60 15.6 53 11.7 78 78 SSW 12 19 29.44 997 10 16 0.00 0.00
8:53 am 08:53 Sunny 64 17.8 51 10.6 63 63 SSW 15 24 29.46 998 10 16 0.00 0.00
9:53 am 09:53 Sunny 68 20 50 10 53 53 SW 15 24 29.46 998 10 16 0.00 0.00
10:53 am 10:53 Sunny 74 23.3 45 7.2 36 36 SW 12 19 29.46 998 10 16 0.00 0.00
11:53 am 11:53 Sunny 79 26.1 44 6.7 29 29 SW 7 11 29.47 998 10 16 0.00 0.00
12:53 pm 12:53 Sunny 83 28.3 43 6.1 24 24 SW 7 11 29.45 997 10 16 0.00 0.00
1:53 pm 13:53 Sunny 87 30.6 42 5.6 21 21 SW 7 11 29.42 996 10 16 0.00 0.00
2:53 pm 14:53 Sunny 89 31.7 40 4.4 18 18 SSW 12 19 29.41 996 10 16 0.00 0.00
3:53 pm 15:53 Sunny 90 32.2 34 1.1 14 14 SSW 13 20 29.40 996 10 16 0.00 0.00
4:53 pm 16:53 Sunny 91 32.8 30 -1.1 11 11 SW 14 22 29.39 995 10 16 0.00 0.00
5:53 pm 17:53 Sunny 90 32.2 29 -1.7 11 11 SSW 9 15 29.39 995 10 16 0.00 0.00
6:53 pm 18:53 Sunny 87 30.6 35 1.7 16 16 S 12 19 29.39 995 10 16 0.00 0.00
7:53 pm 19:53 Sunny 84 28.9 45 7.2 25 25 SSE 12 19 29.39 995 10 16 0.00 0.00
8:53 pm 20:53 Clear 79 26.1 46 7.8 31 31 SSE 12 19 29.40 996 10 16 0.00 0.00
9:53 pm 21:53 Clear 76 24.4 57 13.9 52 52 S 20 31 29.42 996 10 16 0.00 0.00
10:53 pm 22:53 Clear 73 22.8 57 13.9 57 57 S 18 30 29.42 996 10 16 0.00 0.00
11:53 pm 23:53 Clear 70 21.1 56 13.3 61 61 S 15 24 29.42 996 10 16 0.00 0.00

Powered by AerisWeather